www.pogodaiklimat.ru

Погода и климат >> Архив погоды >> Россия >> Волгоградская область >> Фролово


АРХИВ ПОГОДЫ в Фролове

Время (UTC), дата Ветер
(напр.,м/с)
 
Видим.   Явления Облачность Т
(С)
Тd
(С)
f
(%)
Тe
(С)
Тes
(С)
Комфортность P
(гПа)
Po
(гПа)
Тmin
(С)
Tmax
(С)
R
(мм)
R24
(мм)
S
(см)
12 18.05 С 1 10 км 3/3 1000 м
[Cu hum]
+22.9 +4.1 29 +23 +32 комфорт 1014.8 1000.9
15 18.05 С 1 10 км ясно +22.3 +4.5 31 +22 +25 комфорт 1013.5 999.6 +23.5
18 18.05 С 1 20 км ясно +15.6 +5.4 51 +16 +16 1013.7 999.5
21 18.05 штиль 0 20 км ясно +10.7 +6.2 74 +10 +10 1014.2 999.8
00 19.05 СВ 1 20 км ясно +7.0 +4.4 84 +6 +6 1014.0 999.4
03 19.05 штиль 0 10 км ясно +11.7 +5.0 63 +11 +13 1013.7 999.3 +6.8
06 19.05 С 2 10 км ясно +20.2 +7.3 43 +22 +32 комфорт 1013.6 999.7
09 19.05 СЗ 3 10 км ясно +23.6 +4.1 28 +23 +37 комфорт 1013.1 999.3
12 19.05 СЗ 4
{10}
10 км ясно +23.9 +1.9 24 +23 +31 комфорт 1012.8 999.0
15 19.05 СЗ 3 10 км ясно +22.3 +1.0 24 +22 +23 комфорт 1013.0 999.1 +25.9
18 19.05 штиль 0 20 км ясно +14.4 +5.1 54 +14 +14 1014.6 1000.3
21 19.05 СВ 3 20 км ясно +14.1 +2.1 44 +13 +13 1016.0 1001.7
00 20.05 СВ 2 20 км ясно +11.2 +0.7 48 +10 +10 1017.4 1003.0
03 20.05 штиль 0 10 км 3/0
[Ci fib]
+11.4 +2.2 53 +11 +13 1018.9 1004.5 +7.2
06 20.05 СВ 1 10 км ясно +17.7 +0.3 31 +19 +31 опасность
простуды
1019.6 1005.4
09 20.05 С 2 10 км 3/3 1000 м
[Cu hum]
+19.5 +0.1 27 +20 +32 1019.7 1005.7
12 20.05 СЗ 2 10 км 8/0
[Ci fib]
+21.5 +0.9 25 +21 +31 комфорт 1018.9 1004.9
15 20.05 С 2 10 км 10/0
[Cs]
+20.3 +0.9 27 +21 +23 комфорт 1018.4 1004.4 +21.5
18 20.05 СВ 2 20 км 6/0
[Ci fib]
+14.0 +1.2 42 +14 +14 1020.0 1005.6
21 20.05 В 2 20 км 3/0
[Ci fib]
+12.7 -0.1 41 +12 +12 1021.2 1006.8
00 21.05 В 1 20 км ясно +8.6 +1.6 61 +8 +8 1021.5 1006.9
03 21.05 В 1 10 км ясно +11.0 +2.5 56 +11 +13 1022.6 1008.1 +6.9
06 21.05 Ю 2 10 км ясно +18.2 +0.7 31 +19 +29 1022.8 1008.6
09 21.05 В 1 10 км 3/0
[Ci fib]
+20.7 -1.2 23 +22 +41 комфорт 1022.5 1008.4
12 21.05 Ю 1 10 км 8/0
[Ci fib]
+22.1 +0.1 23 +21 +33 комфорт 1021.3 1007.3
15 21.05 штиль 0 10 км 6/0
[Ci fib]
+21.7 -1.4 21 +21 +23 комфорт 1020.1 1006.1 +23.1
18 21.05 В 2 10 км 8/0
[Ci fib]
+14.7 +2.4 43 +15 +15 1020.6 1006.3
21 21.05 В 1 20 км 3/0
[Ci fib]
+13.4 +1.1 43 +14 +14 1020.8 1006.4
00 22.05 ЮВ 2 20 км 6/0
[Ci fib]
+13.3 +1.3 44 +13 +13 1019.7 1005.4
03 22.05 ЮВ 1 10 км 8/0
[Cs]
+13.7 +3.1 49 +14 +16 1019.3 1004.9 +9.8
06 22.05 ЮЗ 4
{10}
10 км 6/0
[Ac und]
+20.4 +5.9 39 +21 +26 комфорт 1018.6 1004.6
09 22.05 Ю 3 10 км 10/0
[Ac As]
+21.9 +3.7 30 +22 +26 комфорт 1017.1 1003.2
12 22.05 Ю 3 10 км 6/0
[Ac As]
+22.7 +1.3 24 +22 +27 комфорт 1015.8 1002.0
15 22.05 Ю 3 10 км 9/0
[Ac As]
+20.9 +1.9 28 +22 +22 комфорт 1014.6 1000.7 +23.0
18 22.05 В 1 20 км 8/0
[Ac As]
+16.9 +2.7 39 +18 +18 1013.8 999.7
21 22.05 ЮВ 2 20 км 9/0
[Ac As]
+15.5 +2.8 42 +16 +16 1012.2 998.1
00 23.05 ЮВ 2 20 км 10/0
[Ac As]
+15.1 +4.1 48 +15 +15 1011.0 996.8
03 23.05 Ю 3 10 км 9/9 600 м
[Sc]
+14.9 +10.1 73 +14 +14 1010.0 995.9 +14.1
06 23.05 Ю 5 10 км 9/9 600 м
[Sc]
+19.5 +12.0 62 +21 +21 комфорт 1008.8 994.9
09 23.05 ЮЗ 4 10 км 8/8 600 м
[Cb calv]
+20.4 +10.6 53 +22 +24 комфорт 1007.6 993.8
12 23.05 З 2 10 км 8/6 600 м
[Cu hum Ci fib]
+23.0 +8.4 39 +24 +28 комфорт 1006.3 992.6
15 23.05 ЮЗ 4
{10}
10 км 9/6 600 м
[Cu hum Cs]
+20.0 +10.4 54 +21 +22 комфорт 1005.9 992.0 +23.6
18 23.05 З 1 20 км 3/0
[Ac und]
+14.2 +10.4 78 +15 +15 1006.5 992.4
21 23.05 Ю 1 20 км 6/0
[Ac As]
+14.8 +10.5 75 +15 +15 1006.4 992.3
00 24.05 З 1 20 км {ливн. осадки} 4/0
[Cs]
+12.5 +11.8 95 +12 +12 1005.8 991.6
03 24.05 З 2 10 км 3/0
[Ci fib]
+14.2 +12.3 88 +14 +15 1006.1 992.0 +12.0 2
06 24.05 З 3 10 км 3/0
[Ci fib]
+20.9 +13.6 63 +24 +32 комфорт 1006.5 992.7
09 24.05 СЗ 2 10 км 6/6 1000 м
[Cu med, cong]
+25.7 +12.3 43 +27 +34 жарко 1006.8 993.2
12 24.05 С 2
{11}
10 км 8/8 600 м
[Cb calv]
+20.9 +13.3 62 +24 +26 комфорт 1007.7 993.9
15 24.05 штиль 0 10 км 8/8 600 м
[Cb calv]
+23.7 +14.2 55 +26 +27 жарко 1008.3 994.6 +27.6
18 24.05 В 1 20 км 6/6 1000 м
[Cu med, cong]
+19.4 +14.2 72 +22 +22 комфорт 1009.7 995.8
21 24.05 В 4 20 км ясно +16.1 +10.5 69 +15 +15 1012.0 997.9
00 25.05 В 5
{10}
20 км 8/0
[Ac und]
+13.3 +7.6 68 +11 +11 1013.1 998.8
03 25.05 В 6-12
{13}
10 км 9/0
[Ac As]
+12.0 +4.8 61 +9 +10 1014.1 999.7 +12.0
06 25.05 В 5
{13}
10 км 8/0
[Ac As]
+15.2 +5.0 51 +14 +17 1014.3 1000.1
09 25.05 В 5-10
{12}
10 км 8/8 600 м
[Sc]
+18.2 +7.2 49 +18 +20 1013.5 999.5

 

Местоположение метеостанции Фролово (Волгоградская область, Россия): широта 49.80 долгота 43.67 высота над уровнем моря 119 м.

В архиве по умолчанию представлена погода в Фролове за последнюю неделю. Архивные данные за месяц целиком и за предыдущие месяцы, начиная с января 2011 года, Вы можете получить, выбрав интересующий диапазон дат из раскрывающегося списка и нажав кнопку "Ввод!".


*Определитесь, кто Вы:
робот инопланетянин человек

Внимание! Время в таблицах - всемирное. Для получения местного времени необходимо прибавить поправку, которая равна 3 ч.

Смотрите также архив погоды в соседних городах и на ближайших метеорологических станциях:

Погода в Михайловке (Волгоградская область, Россия) (42 км)
Погода в Иловле (Волгоградская область, Россия) (60 км)
Погода в Ольховке (Волгоградская область, Россия) (64 км)
Погода в Даниловке (Волгоградская область, Россия) (71 км)
Погода в Серафимовиче (Волгоградская область, Россия) (72 км)
Погода в Новоаннинском (Волгоградская область, Россия) (108 км)
Погода в Волгограде (Волгоградская область, Россия) (124 км)
Погода в Калаче-на-Дону (Волгоградская область, Россия) (125 км)
Погода в Камышине (Волгоградская область, Россия) (125 км)
Погода в Елани (Волгоградская область, Россия) (128 км)

Пояснения к столбцам:

Ветер - указаны скорость ветра в м/с - средняя за 10 мин, порывы в срок и между сроками (в фигурных скобках) и направление, откуда дует ветер: С - северный, СВ - северо-восточный, В - восточный, ЮВ - юго-восточный, Ю - южный, ЮЗ - юго-западный, З - западный, СЗ - северо-западный.
Видимость - горизонтальная дальность видимости в метрах или километрах. При видимости от 1 до 10 км при отсутствии осадков обычно наблюдается дымка, при ухудшении видимости до 1 км и менее - туман. В сухую погоду видимость может ухудшаться дымом, пылью или мглою.
Явления - указаны атмосферные явления, наблюдавшиеся в срок или в последний час перед сроком; фигурными скобками обозначены явления, наблюдавшиеся между сроками (за 1-3 часа до срока); квадратными скобками обозначены град или гололедные отложения с указанием их диаметра в мм.
Облачность - указаны через наклонную черту общая и нижняя облачность в баллах и высота нижней границы облаков в метрах; квадратными скобками обозначены формы облаков: Ci - перистые, Cs - перисто-слоистые, Cc - перисто-кучевые, Ac - высококучевые, As - высокослоистые, Sc - слоисто-кучевые, Ns - слоисто-дождевые, Cu - кучевые, Cb - кучево-дождевые. Подробнее классификацию облаков см. в Атласе облаков (PDF).
T - Температура воздуха - температура, измеренная на высоте 2 м над землей.
Td - Температура точки росы - температура, при понижении до которой содержащийся в воздухе водяной пар достигнет насыщения.
f - Относительная влажность воздуха - влажноcть воздуха, измеренная на высоте 2 м над землей.
Te - Эффективная температура - температура, которую ощущает одетый по сезону человек в тени. Характеристика душности погоды. При расчете учитывается влияние влажности воздуха и скорости ветра на теплоощущения человека.
Tes - Эффективная температура на солнце - температура, которую ощущает человек, с поправкой на солнечный нагрев. Характеристика знойности погоды. Зависит от высоты солнца над горизонтом, облачности и скорости ветра. Ночью, в пасмурную погоду, а также при ветре 12 м/с и более поправка равна нулю.
P - Атмосферное давление - приведенное к уровню моря атмосферное давление.
Po - Атмосферное давление - измеренное на уровне метеостанции атмосферное давление.
Tmin - Минимальная температура - минимум температуры воздуха на высоте 2 м над землей.
Tmax - Максимальная температура - максимум температуры воздуха на высоте 2 м над землей.
R - Количество осадков - Количество выпавших осадков за период времени, мм. При наведении курсора мыши на число - период времени, за который выпало указанное количество осадков.
R24 - Количество осадков - Количество выпавших осадков за 24 часа, мм.
S - Снежный покров - Высота снежного покрова, см. При наведении курсора мыши на число - состояние снежного покрова и степень покрытия местности в баллах.